SCP
0 0 0 0 0 0 0 0 0 0 0 0 0 0 0 0 0 0 0 0 0 0 0 0 0 0 0 0 0 0 0 0 0 0 0 0 0 0 0 0 0 0 0
0 0 0 0 0 0 0 0 0 0 0 0 0 0 0 0 0 0 0 0 0 0 0 0 0 0 0 0 0 0 0 0 0 0 0 0 0 0 0 0 0 0 0
0 0 0 0 0 0 0 0 0 0 0 0 0 0 0 0 0 0 0 0 0 0 0 0 0 0 0 0 0 0 0 0 0 0 0 0 0 0 0 0 0 0 0
0 0 0 0 0 0 0 0 0 0 0 0 0 0 0 0 0 0 0 0 0 0 0 0 0 0 0 0 0 0 0 0 0 0 0 0 0 0 0 0 0 0 0
0 0 0 0 0 0 0 0 0 0 0 0 0 0 0 0 0 0 0 0 0 0 0 0 0 0 0 0 0 0 0 0 0 0 0 0 0 0 0 0 0 0 0
0 0 0 0 0 0 0 0 0 0 0 0 0 0 0 0 0 0 0 0 0 0 0 0 0 0 0 0 0 0 0 0 0 0 0 0 0 0 0 0 0 0 0
0 0 0 0 0 0 0 0 0 0 0 0 0 0 0 0 0 0 0 0 0 0 0 0 0 0 0 0 0 0 0 0 0 0 0 0 0 0 0 0 0 0 0
0 0 0 0 0 0 0 0 0 0 0 0 0 0 0 0 0 0 0 0 0 0 0 0 0 0 0 0 0 0 0 0 0 0 0 0 0 0 0 0 0 0 0
0 0 0 0 0 0 0 0 0 0 0 0 0 0 0 0 0 0 0 0 0 0 0 0 0 0 0 0 0 0 0 0 0 0 0 0 0 0 0 0 0 0 0
0 0 0 0 0 0 0 0 0 0 0 0 0 0 0 0 0 0 0 0 0 0 0 0 0 0 0 0 0 0 0 0 0 0 0 0 0 0 0 0 0 0 0
0 0 0 0 0 0 0 0 0 0 0 0 0 0 0 0 0 0 0 0 0 0 0 0 0 0 0 0 0 0 0 0 0 0 0 0 0 0 0 0 0 0 0
0 0 0 0 0 0 0 0 0 0 0 0 0 0 0 0 0 0 0 0 0 0 0 0 0 0 0 0 0 0 0 0 0 0 0 0 0 0 0 0 0 0 0
0 0 0 0 0 0 0 0 0 0 0 0 0 0 0 0 0 0 0 0 0 0 0 0 0 0 0 0 0 0 0 0 0 0 0 0 0 0 0 0 0 0 0
0 0 0 0 0 0 0 0 0 0 0 0 0 0 0 0 0 0 0 0 0 0 0 0 0 0 0 0 0 0 0 0 0 0 0 0 0 0 0 0 0 0 0
0 0 0 0 0 0 0 0 0 0 0 0 0 0 0 0 0 0 0 0 0 0 0 0 0 0 0 0 0 0 0 0 0 0 0 0 0 0 0 0 0 0 0
0 0 0 0 0 0 0 0 0 0 0 0 0 0 0 0 0 0 0 0 0 0 0 0 0 0 0 0 0 0 0 0 0 0 0 0 0 0 0 0 0 0 0
0 0 0 0 0 0 0 0 0 0 0 0 0 0 0 0 0 0 0 0 0 0 0 0 0 0 0 0 0 0 0 0 0 0 0 0 0 0 0 0 0 0 0
0 0 0 0 0 0 0 0 0 0 0 0 0 0 0 0 0 0 0 0 0 0 0 0 0 0 0 0 0 0 0 0 0 0 0 0 0 0 0 0 0 0 0
0 0 0 0 0 0 0 0 0 0 0 0 0 0 0 0 0 0 0 0 0 0 0 0 0 0 0 0 0 0 0 0 0 0 0 0 0 0 0 0 0 0 0
0 0 0 0 0 0 0 0 0 0 0 0 0 0 0 0 0 0 0 0 0 0 0 0 0 0 0 0 0 0 0 0 0 0 0 0 0 0 0 0 0 0 0
0 0 0 0 0 0 0 0 0 0 0 0 0 0 0 0 0 0 0 0 0 0 0 0 0 0 0 0 0 0 0 0 0 0 0 0 0 0 0 0 0 0 0
0 0 0 0 0 -0 0 0 0 -0 -0 -0 -0 -0 -0 -0 -0 0 0 0 0 0 0 0 0 0 0 0 0 0 0 0 0 0 0 0 0 0 0 0 0 0 0
0 -0 -0 -0 -0 -0 0 0 0 -0 -0 -0 -0 -0 -0 0 0 0 0 0 0 0 0 0 0 0 0 0 0 0 0 0 0 0 0 0 0 0 0 0 0 0 0
0 0 0 0 0 0 0 0 0 0 0 0 0 -0 -0 0 0 0 0 0 0 0 0 0 0 0 0 0 0 0 0 0 0 0 0 0 0 0 0 0 0 0 0
0 0 0 0 0 0 0 0 0 0 0 0 -0 -0 0 -0 0 0 0 0 0 0 0 0 0 0 0 0 0 0 0 0 0 0 0 0 0 0 0 0 0 0 0
0 0 0 0 0 0 0 0 0 0 0 0 0 0 0 0 0 0 0 0 0 0 0 0 0 0 0 0 0 0 0 0 0 0 0 0 0 0 0 0 0 0 0
Wind_Speed_500mb
37 35 34 34 35 35 38 39 39 38 36 40 44 42 41 42 41 42 41 37 38 36 33 30 29 28 35 37 35 33 33 34 33 32 30 28 23 23 22 15 9 12 11
43 42 40 39 39 37 37 40 40 42 44 43 46 49 50 49 48 47 49 46 42 42 41 38 36 36 34 43 43 39 38 39 39 37 33 27 20 21 22 22 18 18 13
48 46 46 44 41 38 39 42 42 43 47 49 52 53 55 55 58 55 54 55 52 48 48 47 44 42 42 38 46 48 44 39 40 37 33 28 21 22 24 26 31 26 24
51 51 53 51 45 41 42 44 45 46 49 52 54 56 57 57 59 60 60 63 61 59 56 55 53 52 49 48 48 51 53 51 50 47 44 39 42 39 39 36 37 34 36
51 53 56 56 52 52 50 49 50 50 51 54 55 55 56 61 62 63 64 66 68 67 66 66 60 59 58 57 55 56 56 57 60 63 63 57 52 51 50 49 48 46 44
54 55 56 58 56 58 60 59 59 55 55 55 58 62 62 62 66 68 70 70 71 75 70 74 72 70 68 67 66 64 64 63 64 67 67 67 65 62 63 61 57 54 55
53 55 59 59 59 60 60 62 65 64 64 64 65 73 73 68 70 69 71 69 70 74 75 78 79 78 77 73 74 73 72 70 69 69 73 73 70 70 68 69 71 68 67
52 48 50 52 57 61 61 62 64 67 74 71 74 71 60 57 66 64 61 56 53 54 57 59 67 73 80 83 82 78 77 78 79 77 74 75 77 77 75 72 73 75 74
43 40 40 41 44 48 51 55 57 64 69 69 75 73 28 34 41 52 57 55 57 60 62 62 62 66 64 66 74 77 80 83 84 85 83 81 79 77 77 76 74 72 71
36 38 39 39 41 44 51 52 54 59 60 63 68 69 75 76 51 48 47 53 63 70 77 74 71 70 67 69 63 61 62 65 75 85 88 86 84 81 80 78 77 75 72
27 28 31 34 36 37 41 45 50 56 58 63 64 72 72 71 74 77 65 58 68 80 82 82 81 77 75 78 81 81 76 74 71 73 81 85 89 85 83 81 81 80 76
28 28 31 34 38 38 42 42 45 50 54 59 66 68 76 72 68 72 78 83 82 84 84 82 86 86 82 85 87 83 77 74 77 81 79 82 85 82 84 87 85 85 80
31 30 30 26 26 34 39 40 43 48 49 57 60 63 67 75 76 77 82 89 81 79 76 86 88 86 79 78 81 81 83 82 83 85 87 84 87 90 87 83 90 88 85
6 11 17 22 25 26 30 34 40 43 50 55 62 64 69 75 80 78 80 82 78 76 77 87 82 83 81 77 75 70 71 74 87 87 86 88 92 94 94 89 90 91 88
10 11 13 17 22 27 24 28 31 35 38 49 57 59 61 66 66 76 76 85 85 79 79 73 75 83 85 81 77 67 71 69 73 79 85 91 97 100 101 100 95 93 94
12 14 16 16 17 22 25 28 33 35 42 49 51 54 60 62 67 67 69 79 93 87 99 82 85 90 91 91 82 81 84 77 79 82 87 90 91 95 98 99 98 97 97
14 16 20 23 25 28 30 33 38 43 47 51 50 56 61 62 62 66 75 81 82 84 90 103 93 92 92 97 91 87 86 83 85 86 86 88 90 93 93 95 98 98 92
20 22 23 24 27 31 35 40 43 47 51 56 57 57 59 61 64 68 69 77 82 88 90 99 112 83 102 98 101 93 95 90 84 87 93 91 88 92 94 96 98 94 93
21 23 26 29 32 35 39 44 49 53 56 58 60 63 65 63 64 65 67 76 79 80 82 94 102 106 85 99 109 89 104 105 101 88 89 88 96 97 91 99 95 100 95
25 29 32 35 37 40 43 48 54 60 65 68 69 69 69 68 65 68 70 74 81 87 90 89 96 91 96 84 108 95 96 109 97 98 95 101 95 99 103 113 107 95 100
36 39 42 44 46 49 52 59 63 66 70 74 75 75 76 79 81 75 71 74 75 77 83 80 95 94 93 87 95 94 108 91 113 100 102 94 96 109 116 111 102 102 97
40 44 48 51 54 56 63 69 72 77 75 76 81 84 84 87 86 85 84 83 80 79 82 81 94 89 101 96 98 90 87 85 104 94 105 99 103 106 106 109 118 95 86
43 45 49 53 55 58 63 68 73 75 79 82 84 88 90 88 87 91 94 93 88 81 78 74 86 98 102 74 79 99 100 96 102 97 103 99 92 88 100 100 99 100 101
40 44 46 47 48 50 53 56 59 59 60 65 71 77 82 88 85 81 85 90 86 80 78 80 85 103 98 106 98 89 89 104 110 106 99 107 105 100 106 109 102 113 109
36 39 40 41 42 43 47 51 56 60 61 64 68 73 81 83 82 77 84 92 96 96 87 83 98 111 113 115 102 106 108 90 97 99 105 101 103 99 102 102 102 106 106
38 39 42 44 48 50 53 56 58 65 70 76 74 73 75 82 85 83 84 89 98 104 98 98 101 104 106 111 103 91 98 100 87 90 92 85 97 93 87 99 104 108 104
Wind_Direction_500mb
256 258 260 259 260 263 263 262 264 266 268 268 270 268 268 270 271 274 276 274 271 268 262 262 257 246 254 261 268 262 243 237 236 230 228 226 228 234 238 230 247 257 275
256 257 259 261 262 263 266 268 269 270 270 269 270 272 274 273 273 272 274 275 271 267 260 257 258 253 242 253 264 266 262 240 235 232 228 230 233 236 245 236 225 230 251
259 259 260 261 264 265 267 267 266 268 269 271 274 276 276 278 276 274 275 274 272 266 263 257 255 255 252 243 243 259 260 262 247 242 241 233 239 244 246 244 249 240 223
261 262 262 262 265 265 266 267 270 271 273 273 275 276 279 279 276 275 276 274 274 270 267 261 258 255 253 251 245 239 251 250 253 254 251 242 240 243 248 249 250 243 247
262 260 264 267 266 266 265 265 266 269 271 275 278 279 277 280 280 278 274 273 274 272 270 268 261 258 254 251 250 246 239 243 249 250 255 255 250 253 254 257 256 250 251
265 263 263 266 266 267 267 268 269 270 273 273 273 275 278 279 283 283 279 278 275 275 272 270 268 261 257 253 251 250 248 244 239 248 251 253 257 256 257 257 257 258 256
266 265 267 268 270 270 271 269 270 273 274 276 274 274 278 280 280 282 282 280 279 278 276 271 269 266 264 258 255 251 251 250 248 245 244 250 251 255 257 259 259 259 257
269 269 270 271 270 272 272 271 274 276 276 274 278 276 273 277 276 280 288 284 280 279 276 277 272 269 267 263 259 254 253 253 252 252 250 248 249 253 254 255 259 257 258
278 274 273 274 273 273 276 276 272 272 275 277 278 272 266 266 274 277 279 278 279 277 275 273 273 275 273 270 265 259 254 254 254 253 252 252 252 252 253 255 257 259 257
276 273 273 275 274 273 275 276 277 277 280 279 281 278 277 278 279 285 274 276 274 276 281 278 275 274 275 273 269 264 262 258 257 254 253 252 253 253 253 253 255 257 256
284 285 284 288 287 286 286 287 291 289 287 284 282 282 282 283 281 270 278 277 279 283 280 278 280 279 273 272 270 269 267 263 260 255 251 249 249 251 254 254 254 255 256
277 279 282 282 283 284 286 287 285 281 285 287 285 280 279 272 274 276 276 278 280 283 283 278 280 279 276 274 271 268 265 262 259 256 254 252 251 250 252 251 252 252 255
260 262 266 272 283 289 289 289 287 293 293 287 287 284 282 280 279 277 273 277 272 277 274 282 278 282 282 278 277 275 271 265 261 257 255 252 250 248 251 250 249 251 251
315 307 302 292 279 274 276 285 286 284 285 292 290 288 287 285 281 281 280 277 274 274 275 276 275 277 285 282 280 282 278 270 260 261 257 252 251 249 250 250 250 249 248
15 353 336 326 322 312 304 296 289 290 292 296 295 289 290 291 294 291 289 287 279 278 274 275 275 283 288 287 285 281 279 272 265 259 256 252 249 248 249 251 250 248 248
6 352 332 321 309 305 305 300 300 299 295 288 284 288 290 293 295 293 291 287 280 281 277 281 278 281 284 285 287 283 275 274 267 261 256 252 249 248 247 248 246 246 247
334 327 326 327 322 318 313 306 302 299 293 292 293 288 286 284 288 294 293 292 276 287 280 282 280 282 284 282 282 282 283 279 275 267 258 255 252 248 246 246 246 244 245
343 337 332 327 323 317 310 304 300 299 298 296 294 292 291 291 289 286 286 289 289 286 285 276 291 275 282 284 288 286 287 283 280 275 269 264 258 253 250 247 245 242 242
339 334 328 325 324 320 316 309 307 304 302 300 300 298 298 296 291 289 288 282 281 288 287 286 284 289 280 292 276 286 276 291 282 284 277 272 260 257 252 249 243 241 239
347 346 345 340 336 331 323 317 312 309 306 306 306 305 304 301 297 292 289 287 286 285 282 280 287 287 284 283 281 275 276 283 283 285 288 274 262 257 253 252 243 242 240
1 359 356 355 351 345 339 334 329 325 321 316 314 311 308 305 304 302 298 292 292 288 284 287 285 282 283 284 275 285 291 277 278 281 284 274 269 265 254 250 245 241 239
5 4 360 359 356 353 347 342 339 335 332 329 325 321 318 313 309 304 301 299 297 297 294 286 279 285 285 281 286 286 284 281 275 281 271 273 269 270 266 262 253 238 238
8 5 3 2 360 355 349 343 338 336 333 331 328 326 322 319 316 313 307 302 298 298 293 290 290 282 282 292 295 287 281 283 273 282 269 276 264 269 267 258 261 238 232
10 8 6 5 2 355 347 339 334 333 330 329 330 329 327 324 323 318 312 306 300 295 294 292 286 284 282 276 273 274 287 284 280 281 269 270 268 267 266 256 248 242 235
10 7 2 357 354 349 346 343 340 338 337 337 338 339 337 334 328 321 315 310 305 301 297 290 285 285 286 286 283 279 275 287 279 270 268 271 263 261 258 253 250 240 240
0 359 356 354 351 347 347 346 346 342 338 337 339 337 337 334 325 321 317 313 307 306 307 308 304 297 294 291 292 287 279 272 271 270 267 256 260 255 247 248 246 235 230
Wind_Speed_850mb
37 35 34 34 35 35 38 39 39 38 36 40 44 42 41 42 41 42 41 37 38 36 33 30 29 28 35 37 35 33 33 34 33 32 30 28 23 23 22 15 9 12 11
43 42 40 39 39 37 37 40 40 42 44 43 46 49 50 49 48 47 49 46 42 42 41 38 36 36 34 43 43 39 38 39 39 37 33 27 20 21 22 22 18 18 13
48 46 46 44 41 38 39 42 42 43 47 49 52 53 55 55 58 55 54 55 52 48 48 47 44 42 42 38 46 48 44 39 40 37 33 28 21 22 24 26 31 26 24
51 51 53 51 45 41 42 44 45 46 49 52 54 56 57 57 59 60 60 63 61 59 56 55 53 52 49 48 48 51 53 51 50 47 44 39 42 39 39 36 37 34 36
51 53 56 56 52 52 50 49 50 50 51 54 55 55 56 61 62 63 64 66 68 67 66 66 60 59 58 57 55 56 56 57 60 63 63 57 52 51 50 49 48 46 44
54 55 56 58 56 58 60 59 59 55 55 55 58 62 62 62 66 68 70 70 71 75 70 74 72 70 68 67 66 64 64 63 64 67 67 67 65 62 63 61 57 54 55
53 55 59 59 59 60 60 62 65 64 64 64 65 73 73 68 70 69 71 69 70 74 75 78 79 78 77 73 74 73 72 70 69 69 73 73 70 70 68 69 71 68 67
52 48 50 52 57 61 61 62 64 67 74 71 74 71 60 57 66 64 61 56 53 54 57 59 67 73 80 83 82 78 77 78 79 77 74 75 77 77 75 72 73 75 74
43 40 40 41 44 48 51 55 57 64 69 69 75 73 28 34 41 52 57 55 57 60 62 62 62 66 64 66 74 77 80 83 84 85 83 81 79 77 77 76 74 72 71
36 38 39 39 41 44 51 52 54 59 60 63 68 69 75 76 51 48 47 53 63 70 77 74 71 70 67 69 63 61 62 65 75 85 88 86 84 81 80 78 77 75 72
27 28 31 34 36 37 41 45 50 56 58 63 64 72 72 71 74 77 65 58 68 80 82 82 81 77 75 78 81 81 76 74 71 73 81 85 89 85 83 81 81 80 76
28 28 31 34 38 38 42 42 45 50 54 59 66 68 76 72 68 72 78 83 82 84 84 82 86 86 82 85 87 83 77 74 77 81 79 82 85 82 84 87 85 85 80
31 30 30 26 26 34 39 40 43 48 49 57 60 63 67 75 76 77 82 89 81 79 76 86 88 86 79 78 81 81 83 82 83 85 87 84 87 90 87 83 90 88 85
6 11 17 22 25 26 30 34 40 43 50 55 62 64 69 75 80 78 80 82 78 76 77 87 82 83 81 77 75 70 71 74 87 87 86 88 92 94 94 89 90 91 88
10 11 13 17 22 27 24 28 31 35 38 49 57 59 61 66 66 76 76 85 85 79 79 73 75 83 85 81 77 67 71 69 73 79 85 91 97 100 101 100 95 93 94
12 14 16 16 17 22 25 28 33 35 42 49 51 54 60 62 67 67 69 79 93 87 99 82 85 90 91 91 82 81 84 77 79 82 87 90 91 95 98 99 98 97 97
14 16 20 23 25 28 30 33 38 43 47 51 50 56 61 62 62 66 75 81 82 84 90 103 93 92 92 97 91 87 86 83 85 86 86 88 90 93 93 95 98 98 92
20 22 23 24 27 31 35 40 43 47 51 56 57 57 59 61 64 68 69 77 82 88 90 99 112 83 102 98 101 93 95 90 84 87 93 91 88 92 94 96 98 94 93
21 23 26 29 32 35 39 44 49 53 56 58 60 63 65 63 64 65 67 76 79 80 82 94 102 106 85 99 109 89 104 105 101 88 89 88 96 97 91 99 95 100 95
25 29 32 35 37 40 43 48 54 60 65 68 69 69 69 68 65 68 70 74 81 87 90 89 96 91 96 84 108 95 96 109 97 98 95 101 95 99 103 113 107 95 100
36 39 42 44 46 49 52 59 63 66 70 74 75 75 76 79 81 75 71 74 75 77 83 80 95 94 93 87 95 94 108 91 113 100 102 94 96 109 116 111 102 102 97
40 44 48 51 54 56 63 69 72 77 75 76 81 84 84 87 86 85 84 83 80 79 82 81 94 89 101 96 98 90 87 85 104 94 105 99 103 106 106 109 118 95 86
43 45 49 53 55 58 63 68 73 75 79 82 84 88 90 88 87 91 94 93 88 81 78 74 86 98 102 74 79 99 100 96 102 97 103 99 92 88 100 100 99 100 101
40 44 46 47 48 50 53 56 59 59 60 65 71 77 82 88 85 81 85 90 86 80 78 80 85 103 98 106 98 89 89 104 110 106 99 107 105 100 106 109 102 113 109
36 39 40 41 42 43 47 51 56 60 61 64 68 73 81 83 82 77 84 92 96 96 87 83 98 111 113 115 102 106 108 90 97 99 105 101 103 99 102 102 102 106 106
38 39 42 44 48 50 53 56 58 65 70 76 74 73 75 82 85 83 84 89 98 104 98 98 101 104 106 111 103 91 98 100 87 90 92 85 97 93 87 99 104 108 104
Wind_Direction_850mb
256 258 260 259 260 263 263 262 264 266 268 268 270 268 268 270 271 274 276 274 271 268 262 262 257 246 254 261 268 262 243 237 236 230 228 226 228 234 238 230 247 257 275
256 257 259 261 262 263 266 268 269 270 270 269 270 272 274 273 273 272 274 275 271 267 260 257 258 253 242 253 264 266 262 240 235 232 228 230 233 236 245 236 225 230 251
259 259 260 261 264 265 267 267 266 268 269 271 274 276 276 278 276 274 275 274 272 266 263 257 255 255 252 243 243 259 260 262 247 242 241 233 239 244 246 244 249 240 223
261 262 262 262 265 265 266 267 270 271 273 273 275 276 279 279 276 275 276 274 274 270 267 261 258 255 253 251 245 239 251 250 253 254 251 242 240 243 248 249 250 243 247
262 260 264 267 266 266 265 265 266 269 271 275 278 279 277 280 280 278 274 273 274 272 270 268 261 258 254 251 250 246 239 243 249 250 255 255 250 253 254 257 256 250 251
265 263 263 266 266 267 267 268 269 270 273 273 273 275 278 279 283 283 279 278 275 275 272 270 268 261 257 253 251 250 248 244 239 248 251 253 257 256 257 257 257 258 256
266 265 267 268 270 270 271 269 270 273 274 276 274 274 278 280 280 282 282 280 279 278 276 271 269 266 264 258 255 251 251 250 248 245 244 250 251 255 257 259 259 259 257
269 269 270 271 270 272 272 271 274 276 276 274 278 276 273 277 276 280 288 284 280 279 276 277 272 269 267 263 259 254 253 253 252 252 250 248 249 253 254 255 259 257 258
278 274 273 274 273 273 276 276 272 272 275 277 278 272 266 266 274 277 279 278 279 277 275 273 273 275 273 270 265 259 254 254 254 253 252 252 252 252 253 255 257 259 257
276 273 273 275 274 273 275 276 277 277 280 279 281 278 277 278 279 285 274 276 274 276 281 278 275 274 275 273 269 264 262 258 257 254 253 252 253 253 253 253 255 257 256
284 285 284 288 287 286 286 287 291 289 287 284 282 282 282 283 281 270 278 277 279 283 280 278 280 279 273 272 270 269 267 263 260 255 251 249 249 251 254 254 254 255 256
277 279 282 282 283 284 286 287 285 281 285 287 285 280 279 272 274 276 276 278 280 283 283 278 280 279 276 274 271 268 265 262 259 256 254 252 251 250 252 251 252 252 255
260 262 266 272 283 289 289 289 287 293 293 287 287 284 282 280 279 277 273 277 272 277 274 282 278 282 282 278 277 275 271 265 261 257 255 252 250 248 251 250 249 251 251
315 307 302 292 279 274 276 285 286 284 285 292 290 288 287 285 281 281 280 277 274 274 275 276 275 277 285 282 280 282 278 270 260 261 257 252 251 249 250 250 250 249 248
15 353 336 326 322 312 304 296 289 290 292 296 295 289 290 291 294 291 289 287 279 278 274 275 275 283 288 287 285 281 279 272 265 259 256 252 249 248 249 251 250 248 248
6 352 332 321 309 305 305 300 300 299 295 288 284 288 290 293 295 293 291 287 280 281 277 281 278 281 284 285 287 283 275 274 267 261 256 252 249 248 247 248 246 246 247
334 327 326 327 322 318 313 306 302 299 293 292 293 288 286 284 288 294 293 292 276 287 280 282 280 282 284 282 282 282 283 279 275 267 258 255 252 248 246 246 246 244 245
343 337 332 327 323 317 310 304 300 299 298 296 294 292 291 291 289 286 286 289 289 286 285 276 291 275 282 284 288 286 287 283 280 275 269 264 258 253 250 247 245 242 242
339 334 328 325 324 320 316 309 307 304 302 300 300 298 298 296 291 289 288 282 281 288 287 286 284 289 280 292 276 286 276 291 282 284 277 272 260 257 252 249 243 241 239
347 346 345 340 336 331 323 317 312 309 306 306 306 305 304 301 297 292 289 287 286 285 282 280 287 287 284 283 281 275 276 283 283 285 288 274 262 257 253 252 243 242 240
1 359 356 355 351 345 339 334 329 325 321 316 314 311 308 305 304 302 298 292 292 288 284 287 285 282 283 284 275 285 291 277 278 281 284 274 269 265 254 250 245 241 239
5 4 360 359 356 353 347 342 339 335 332 329 325 321 318 313 309 304 301 299 297 297 294 286 279 285 285 281 286 286 284 281 275 281 271 273 269 270 266 262 253 238 238
8 5 3 2 360 355 349 343 338 336 333 331 328 326 322 319 316 313 307 302 298 298 293 290 290 282 282 292 295 287 281 283 273 282 269 276 264 269 267 258 261 238 232
10 8 6 5 2 355 347 339 334 333 330 329 330 329 327 324 323 318 312 306 300 295 294 292 286 284 282 276 273 274 287 284 280 281 269 270 268 267 266 256 248 242 235
10 7 2 357 354 349 346 343 340 338 337 337 338 339 337 334 328 321 315 310 305 301 297 290 285 285 286 286 283 279 275 287 279 270 268 271 263 261 258 253 250 240 240
0 359 356 354 351 347 347 346 346 342 338 337 339 337 337 334 325 321 317 313 307 306 307 308 304 297 294 291 292 287 279 272 271 270 267 256 260 255 247 248 246 235 230